When you browse on this site, cookies collect data to enhance your experience and personalize the content and advertising you see.
Visit our Privacy Policy to learn more. By continuing to use the site, you agree to this use of cookies and data.
  • In Hungary
  • List of Countries
  • For 7 days
  • Water Temperature
  • Satellite Maps
  • Weather Map
  • News
  • Weather Widgets
  • user-avatar
    Login

    Hourly Weather Kemri

    Today, 21 March, Thursday

    Time Temperature Precipitation Wind Pressure Humidity
    00:00 +20°C° 0 mm 3 mps 742 mmHg 52%
    01:00 +20°C° 0 mm 3 mps 742 mmHg 50%
    02:00 +20°C° 0 mm 3 mps 741 mmHg 47%
    03:00 +19°C° 0 mm 2 mps 741 mmHg 46%
    04:00 +20°C° 0 mm 1 mps 741 mmHg 45%
    05:00 +20°C° 0 mm 1 mps 741 mmHg 52%
    06:00 +21°C° 0 mm 1 mps 742 mmHg 48%
    07:00 +23°C° 0 mm 1 mps 742 mmHg 43%
    08:00 +25°C° 0 mm 2 mps 743 mmHg 38%
    09:00 +27°C° 0 mm 2 mps 743 mmHg 32%
    10:00 +30°C° 0 mm 2 mps 743 mmHg 26%
    11:00 +32°C° 0 mm 2 mps 743 mmHg 19%
    12:00 +34°C° 0 mm 2 mps 743 mmHg 18%
    13:00 +35°C° 0 mm 2 mps 742 mmHg 17%
    14:00 +35°C° 0 mm 2 mps 741 mmHg 16%
    15:00 +34°C° 0 mm 2 mps 741 mmHg 19%
    16:00 +32°C° 0 mm 2 mps 741 mmHg 22%
    17:00 +31°C° 0 mm 2 mps 741 mmHg 25%
    18:00 +29°C° 0 mm 2 mps 741 mmHg 26%
    19:00 +27°C° 0 mm 3 mps 742 mmHg 27%
    20:00 +25°C° 0 mm 3 mps 742 mmHg 28%
    21:00 +24°C° 0 mm 3 mps 742 mmHg 29%
    22:00 +23°C° 0 mm 2 mps 743 mmHg 29%
    23:00 +23°C° 0 mm 2 mps 743 mmHg 30%

    Tomorrow, 22 March, Friday

    Time Temperature Precipitation Wind Pressure Humidity
    00:00 +21°C° 0 mm 2 mps 743 mmHg 30%
    01:00 +21°C° 0 mm 2 mps 742 mmHg 30%
    02:00 +21°C° 0 mm 3 mps 742 mmHg 31%
    03:00 +21°C° 0 mm 2 mps 742 mmHg 31%
    04:00 +20°C° 0 mm 2 mps 742 mmHg 31%
    05:00 +20°C° 0 mm 2 mps 742 mmHg 32%
    06:00 +21°C° 0 mm 3 mps 742 mmHg 32%
    07:00 +24°C° 0 mm 3 mps 743 mmHg 32%
    08:00 +25°C° 0 mm 3 mps 743 mmHg 32%
    09:00 +27°C° 0 mm 4 mps 744 mmHg 27%
    10:00 +30°C° 0 mm 5 mps 744 mmHg 22%
    11:00 +33°C° 0 mm 5 mps 744 mmHg 18%
    12:00 +33°C° 0 mm 5 mps 743 mmHg 17%
    13:00 +34°C° 0 mm 6 mps 742 mmHg 17%
    14:00 +34°C° 0 mm 6 mps 742 mmHg 16%
    15:00 +33°C° 0 mm 5 mps 741 mmHg 18%
    16:00 +32°C° 0 mm 5 mps 741 mmHg 21%
    17:00 +30°C° 0 mm 4 mps 741 mmHg 23%
    18:00 +28°C° 0 mm 4 mps 741 mmHg 25%
    19:00 +26°C° 0 mm 4 mps 742 mmHg 27%
    20:00 +23°C° 0 mm 4 mps 743 mmHg 29%
    21:00 +22°C° 0 mm 4 mps 743 mmHg 32%
    22:00 +21°C° 0 mm 4 mps 743 mmHg 35%
    23:00 +20°C° 0 mm 4 mps 743 mmHg 39%

    Day after tomorrow, 23 March, Saturday

    Time Temperature Precipitation Wind Pressure Humidity
    00:00 +20°C° 0 mm 4 mps 743 mmHg 42%
    01:00 +19°C° 0 mm 4 mps 742 mmHg 45%
    02:00 +18°C° 0 mm 3 mps 742 mmHg 48%
    03:00 +18°C° 0 mm 3 mps 742 mmHg 49%
    04:00 +17°C° 0 mm 3 mps 742 mmHg 49%
    05:00 +17°C° 0 mm 3 mps 742 mmHg 50%
    06:00 +18°C° 0 mm 3 mps 742 mmHg 45%
    07:00 +20°C° 0 mm 4 mps 743 mmHg 40%
    08:00 +22°C° 0 mm 4 mps 743 mmHg 35%
    09:00 +26°C° 0 mm 4 mps 743 mmHg 29%
    10:00 +29°C° 0 mm 5 mps 743 mmHg 22%
    11:00 +33°C° 0 mm 5 mps 743 mmHg 16%
    12:00 +34°C° 0 mm 6 mps 742 mmHg 14%
    13:00 +35°C° 0 mm 7 mps 741 mmHg 13%
    14:00 +37°C° 0 mm 8 mps 741 mmHg 11%
    15:00 +35°C° 0 mm 7 mps 740 mmHg 13%
    16:00 +34°C° 0 mm 6 mps 740 mmHg 16%
    17:00 +32°C° 0 mm 5 mps 740 mmHg 18%
    18:00 +30°C° 0 mm 5 mps 740 mmHg 20%
    19:00 +28°C° 0 mm 5 mps 741 mmHg 22%
    20:00 +26°C° 0 mm 5 mps 741 mmHg 25%
    21:00 +25°C° 0 mm 5 mps 741 mmHg 26%
    22:00 +23°C° 0 mm 5 mps 742 mmHg 27%
    23:00 +23°C° 0 mm 5 mps 742 mmHg 28%

    24 March, Sunday

    Time Temperature Precipitation Wind Pressure Humidity
    00:00 +22°C° 0 mm 5 mps 741 mmHg 28%
    01:00 +22°C° 0 mm 5 mps 741 mmHg 28%
    02:00 +22°C° 0 mm 5 mps 740 mmHg 28%
    03:00 +22°C° 0 mm 4 mps 740 mmHg 28%
    04:00 +21°C° 0 mm 4 mps 740 mmHg 29%
    05:00 +20°C° 0 mm 3 mps 740 mmHg 29%
    06:00 +22°C° 0 mm 4 mps 740 mmHg 28%
    07:00 +23°C° 0 mm 5 mps 741 mmHg 27%
    08:00 +26°C° 0 mm 5 mps 741 mmHg 26%
    09:00 +29°C° 0 mm 6 mps 741 mmHg 23%
    10:00 +32°C° 0 mm 7 mps 742 mmHg 21%
    11:00 +35°C° 0 mm 9 mps 742 mmHg 18%
    12:00 +37°C° 0 mm 9 mps 741 mmHg 18%
    13:00 +37°C° 0 mm 9 mps 740 mmHg 17%
    14:00 +38°C° 0 mm 9 mps 739 mmHg 16%
    15:00 +37°C° 0 mm 8 mps 739 mmHg 18%
    16:00 +34°C° 0 mm 6 mps 739 mmHg 20%
    17:00 +33°C° 0 mm 5 mps 739 mmHg 21%
    18:00 +30°C° 0 mm 5 mps 739 mmHg 25%
    19:00 +28°C° 0 mm 4 mps 740 mmHg 28%
    20:00 +26°C° 0 mm 4 mps 741 mmHg 31%
    21:00 +25°C° 0 mm 4 mps 741 mmHg 34%
    22:00 +23°C° 0 mm 4 mps 741 mmHg 37%
    23:00 +22°C° 0 mm 4 mps 741 mmHg 41%

    25 March, Monday

    Time Temperature Precipitation Wind Pressure Humidity
    00:00 +22°C° 0 mm 3 mps 741 mmHg 42%
    01:00 +22°C° 0 mm 3 mps 741 mmHg 43%
    02:00 +21°C° 0 mm 3 mps 741 mmHg 44%
    03:00 +21°C° 0 mm 2 mps 741 mmHg 46%
    04:00 +20°C° 0 mm 2 mps 741 mmHg 48%
    05:00 +20°C° 0 mm 2 mps 741 mmHg 50%
    06:00 +21°C° 0 mm 2 mps 741 mmHg 46%
    07:00 +24°C° 0 mm 2 mps 742 mmHg 42%
    08:00 +25°C° 0 mm 2 mps 743 mmHg 38%
    09:00 +27°C° 0 mm 2 mps 743 mmHg 36%
    10:00 +28°C° 0 mm 1 mps 743 mmHg 33%
    11:00 +29°C° 0 mm 1 mps 743 mmHg 30%
    12:00 +31°C° 0 mm 2 mps 743 mmHg 26%
    13:00 +34°C° 0 mm 2 mps 742 mmHg 21%
    14:00 +35°C° 0 mm 3 mps 741 mmHg 16%
    15:00 +35°C° 0 mm 3 mps 741 mmHg 18%
    16:00 +34°C° 0 mm 2 mps 741 mmHg 20%
    17:00 +32°C° 0 mm 2 mps 741 mmHg 22%
    18:00 +30°C° 0 mm 2 mps 742 mmHg 23%
    19:00 +28°C° 0 mm 2 mps 742 mmHg 24%
    20:00 +25°C° 0 mm 2 mps 743 mmHg 24%
    21:00 +25°C° 0 mm 2 mps 743 mmHg 25%
    22:00 +24°C° 0 mm 2 mps 743 mmHg 25%
    23:00 +23°C° 0 mm 1 mps 743 mmHg 25%

    26 March, Tuesday

    Time Temperature Precipitation Wind Pressure Humidity
    00:00 +23°C° 0 mm 1 mps 743 mmHg 26%
    01:00 +22°C° 0 mm 1 mps 743 mmHg 28%
    02:00 +22°C° 0 mm 1 mps 742 mmHg 29%
    03:00 +21°C° 0 mm 1 mps 742 mmHg 29%
    04:00 +21°C° 0 mm 1 mps 742 mmHg 30%
    05:00 +20°C° 0 mm 1 mps 742 mmHg 31%
    06:00 +22°C° 0 mm 1 mps 742 mmHg 29%
    07:00 +24°C° 0 mm 1 mps 743 mmHg 28%
    08:00 +26°C° 0 mm 1 mps 743 mmHg 26%
    09:00 +28°C° 0 mm 2 mps 743 mmHg 23%
    10:00 +30°C° 0 mm 2 mps 743 mmHg 19%
    11:00 +34°C° 0 mm 3 mps 743 mmHg 15%
    12:00 +35°C° 0 mm 4 mps 742 mmHg 14%
    13:00 +36°C° 0 mm 4 mps 741 mmHg 12%
    14:00 +37°C° 0 mm 5 mps 741 mmHg 11%
    15:00 +36°C° 0 mm 4 mps 740 mmHg 12%
    16:00 +35°C° 0 mm 4 mps 740 mmHg 14%
    17:00 +34°C° 0 mm 4 mps 740 mmHg 15%
    18:00 +31°C° 0 mm 3 mps 741 mmHg 17%
    19:00 +28°C° 0 mm 3 mps 741 mmHg 19%
    20:00 +26°C° 0 mm 3 mps 742 mmHg 21%
    21:00 +25°C° 0 mm 3 mps 742 mmHg 24%
    22:00 +24°C° 0 mm 2 mps 742 mmHg 26%
    23:00 +23°C° 0 mm 2 mps 743 mmHg 28%
    Show more